Theta_e
309 309 309 309 309 309 309 309 310 310 310 311 311 311 312 312 313 314 316 318 320 321 319 319 318 319 320 320 321 321 321 321 321 320 322 321 323 327 325 326 325 324 322 318 334 343 341 348 351 346 344 343 343 344 347 346 347 347 350 348 341 342 340 337 341 339 339 338 337 339 337 339 340 341 341 342 341 342 345 346 347 347 348 348 351 352 352 353
309 309 309 309 309 309 309 309 309 310 310 311 311 311 311 311 312 312 313 315 317 320 321 320 319 319 320 320 321 321 321 321 321 320 320 321 323 328 325 324 322 321 320 318 334 344 343 347 348 346 343 342 341 341 346 344 344 347 346 344 341 342 340 340 342 340 340 339 338 340 339 338 338 338 339 341 340 341 344 345 345 347 348 348 350 352 351 353
309 309 309 309 310 309 310 310 310 310 310 311 311 311 311 311 311 312 312 312 313 316 318 320 320 319 319 319 320 320 321 320 322 323 323 324 325 327 326 322 321 320 319 320 332 342 343 346 344 344 341 340 340 341 344 344 344 345 344 344 342 342 342 342 341 341 342 340 341 341 339 338 338 336 338 341 338 340 344 343 345 347 350 349 350 352 352 353
308 308 309 309 309 309 310 310 310 310 311 311 311 311 312 311 312 312 312 312 312 313 314 317 319 320 320 319 320 320 319 320 325 327 328 327 325 325 324 321 321 320 319 321 332 340 341 342 340 341 340 338 339 340 341 342 343 343 344 343 343 343 342 343 341 341 343 342 342 341 341 337 336 336 338 341 338 339 343 342 345 349 350 350 350 352 351 352
308 308 308 308 308 309 309 309 309 310 310 311 311 312 312 312 312 312 312 313 312 313 313 314 315 317 319 319 319 319 319 322 327 329 327 325 324 322 321 321 320 321 319 320 333 339 339 339 337 337 339 338 337 338 339 340 341 341 342 344 344 343 341 343 341 341 341 342 343 341 340 337 337 336 338 339 338 339 342 342 345 349 350 352 351 351 351 352
308 308 308 308 308 308 309 309 309 309 310 310 311 311 312 312 312 313 313 313 313 313 313 313 313 314 315 316 317 317 320 324 325 327 327 326 326 323 322 321 320 322 319 322 334 338 337 336 336 337 338 337 336 335 338 340 339 339 342 343 343 342 342 342 341 340 342 342 343 341 340 337 337 337 337 340 338 340 341 342 345 348 350 352 352 351 352 352
307 307 307 308 308 308 308 308 309 309 309 310 310 310 311 312 312 313 313 314 313 313 313 313 313 313 313 314 314 318 323 325 323 325 327 328 327 324 323 320 320 322 319 326 335 337 335 335 334 336 337 337 336 336 336 338 338 338 340 343 343 342 343 344 341 340 340 341 344 342 342 339 337 337 338 339 338 339 339 341 345 347 350 351 351 351 351 352
306 306 306 307 308 308 308 308 309 309 309 309 310 310 311 311 312 313 313 313 314 313 313 313 313 313 313 313 314 321 326 326 327 327 327 327 326 324 322 321 321 321 320 327 336 335 335 334 333 333 334 335 335 335 336 335 337 337 337 341 344 343 343 342 339 339 340 342 343 344 343 341 340 339 338 338 337 339 339 342 345 347 349 350 350 350 350 350
304 305 306 307 307 307 308 308 309 308 309 310 310 310 310 311 312 312 313 313 314 314 313 314 313 313 312 312 314 321 324 326 330 328 326 326 326 325 321 322 323 321 325 330 333 334 333 332 332 332 332 333 334 336 336 335 335 335 335 339 342 342 342 341 339 339 339 341 343 343 343 342 341 340 339 337 336 338 340 342 345 346 348 350 350 349 350 350
303 304 304 305 306 307 307 308 308 308 309 310 310 310 310 311 311 312 313 312 313 313 313 314 313 313 312 313 317 321 323 326 328 327 326 326 330 330 325 326 327 326 330 333 332 332 331 330 330 331 331 333 334 335 335 335 334 335 336 337 340 340 341 339 339 339 339 340 343 343 341 342 342 340 339 338 337 337 340 342 345 347 347 349 348 348 351 350
303 304 304 305 305 306 306 307 307 308 308 309 310 310 310 311 311 312 312 312 313 313 314 313 314 313 312 315 321 322 323 326 326 326 326 325 329 332 331 331 331 329 331 332 330 329 328 328 329 329 330 331 333 333 334 335 335 335 336 337 338 339 340 341 339 337 338 339 342 343 342 343 342 339 340 340 337 338 341 342 344 345 347 349 348 349 351 351
303 303 304 304 305 305 306 306 307 307 308 308 309 310 311 311 311 311 312 313 312 313 313 313 314 313 312 318 323 322 322 325 325 326 327 327 328 329 329 330 332 331 330 330 329 328 326 327 327 328 329 330 331 333 334 334 335 334 336 336 337 339 339 339 338 337 338 339 343 343 340 341 343 338 341 342 337 337 341 342 344 345 347 349 348 349 351 350
303 303 304 304 304 305 305 306 306 307 307 308 309 309 310 311 311 311 312 312 312 313 312 313 313 312 315 321 322 319 322 324 325 326 326 327 328 328 327 326 328 330 331 331 330 328 327 326 327 328 329 330 331 332 333 335 335 334 333 334 335 336 337 338 337 338 338 339 341 341 335 338 342 340 342 342 337 339 341 341 343 344 346 348 348 350 351 350
303 304 304 304 305 305 305 305 306 307 307 308 309 309 309 311 311 311 312 312 312 313 312 313 313 314 320 324 319 319 322 323 325 327 326 327 327 328 328 326 326 327 328 330 330 329 328 327 326 328 329 329 330 332 332 333 334 333 332 332 333 330 331 338 338 337 339 338 342 340 332 337 342 341 343 343 339 339 341 342 343 345 345 347 348 351 351 350
304 304 304 304 305 305 305 305 306 307 307 308 308 309 310 310 311 311 312 312 312 313 312 313 315 319 326 327 322 324 324 323 325 326 326 326 326 328 328 327 325 326 326 328 328 330 330 328 328 327 328 329 329 330 331 332 333 333 329 326 330 328 330 339 338 337 339 337 341 339 333 338 343 342 344 345 341 339 340 341 343 345 345 345 348 351 351 351
304 305 305 305 305 305 305 306 306 307 307 308 308 309 310 310 311 311 312 312 312 313 312 318 324 327 329 328 325 329 328 326 326 325 326 326 327 327 326 326 325 325 326 326 327 328 329 329 329 329 328 329 329 329 330 327 328 332 329 323 327 328 329 335 338 337 338 339 341 338 336 340 342 343 343 344 342 339 341 341 341 343 344 345 349 351 351 351
304 305 305 305 305 305 305 305 306 306 307 309 308 309 310 310 312 311 312 311 312 313 312 321 334 333 330 328 328 328 328 329 326 326 327 325 327 327 325 326 325 326 326 326 327 328 327 329 329 329 328 328 329 329 326 322 321 327 329 326 327 329 328 331 336 337 338 339 340 339 340 341 342 343 343 344 343 341 341 342 340 341 342 344 348 351 351 351
303 304 305 305 305 305 305 305 306 306 307 309 308 310 311 311 312 313 314 313 314 318 318 322 330 329 328 330 331 329 327 328 327 327 328 326 327 327 326 326 326 326 326 326 327 326 327 328 328 328 328 327 329 329 324 321 322 324 326 325 326 330 330 330 334 338 337 339 341 340 340 342 342 341 343 343 343 343 342 341 340 341 342 343 347 350 351 352
302 304 305 305 305 305 305 305 306 306 307 309 309 309 311 315 321 325 325 324 323 326 327 329 327 325 324 329 331 330 327 327 328 328 328 327 326 325 327 327 326 326 327 326 326 326 326 327 326 325 326 327 329 329 327 328 329 328 329 329 326 327 330 333 336 337 338 339 341 340 340 343 342 342 345 344 343 343 343 343 342 340 341 342 345 347 348 351
302 303 304 305 305 305 306 305 305 305 306 309 308 310 318 322 327 331 328 328 330 329 329 330 329 327 327 329 328 329 328 328 328 329 329 328 326 326 326 326 327 327 327 326 325 327 327 326 325 324 325 328 329 330 331 332 332 331 332 331 330 329 328 336 338 338 338 337 338 341 341 343 343 342 345 345 345 344 343 345 344 342 342 342 344 345 346 351
303 303 304 305 305 306 306 305 305 305 306 308 307 312 321 321 319 321 319 321 325 325 327 327 327 328 329 329 327 327 327 327 328 328 328 327 326 325 325 326 327 326 327 326 326 327 327 324 324 325 327 328 330 332 332 332 331 331 331 330 330 329 330 337 337 337 338 336 337 340 341 343 345 344 345 345 344 344 344 345 345 344 344 342 345 345 347 350
303 304 304 304 305 306 306 306 305 305 306 308 309 314 320 318 316 315 314 314 316 318 320 321 321 324 325 325 327 326 325 326 327 328 328 327 326 324 325 326 325 327 327 327 327 326 325 323 325 327 327 328 329 331 331 332 331 332 331 329 326 329 332 334 336 337 337 335 336 339 338 340 345 344 343 345 344 345 345 346 346 345 345 344 344 345 346 348
304 304 304 304 305 306 306 306 306 309 310 310 313 317 317 316 315 313 313 315 315 317 317 318 319 320 321 322 324 324 324 325 326 327 328 327 327 325 325 325 325 326 327 326 326 324 322 323 326 327 327 328 329 330 331 332 330 331 331 326 324 330 330 328 333 338 338 336 336 338 338 339 344 344 344 345 345 345 345 345 346 345 345 345 345 346 346 347
306 305 305 303 303 306 306 307 311 314 312 312 313 315 315 314 314 313 315 315 317 318 319 319 319 318 320 321 322 324 325 324 324 325 326 325 325 324 324 326 325 325 326 327 327 324 323 325 327 327 327 327 328 329 330 329 328 330 330 328 326 330 331 330 334 337 337 337 337 337 333 334 341 344 345 346 346 345 345 345 346 346 346 345 346 346 347 347
307 305 305 303 302 305 306 311 317 315 310 311 313 315 315 314 314 313 315 318 318 321 321 322 321 320 322 320 321 323 324 325 324 324 324 325 325 325 325 326 326 326 326 327 327 326 326 327 328 327 326 327 327 329 330 329 326 327 330 331 330 332 334 335 336 335 330 330 336 336 326 328 338 342 344 346 345 345 346 345 345 346 346 345 346 346 347 348
307 306 305 304 302 303 306 313 318 313 309 314 315 315 314 313 313 312 316 320 319 322 324 324 323 322 322 322 322 323 322 324 324 323 324 323 324 325 325 326 327 327 325 326 327 327 326 328 329 326 326 327 327 328 330 330 325 323 328 332 332 334 333 334 334 330 325 325 336 337 328 326 333 338 343 346 346 346 345 347 346 346 346 346 345 346 346 348
306 307 305 304 303 302 304 308 310 308 311 315 315 314 313 313 311 312 318 318 318 324 326 323 324 323 323 324 323 323 321 322 325 324 324 324 324 326 325 326 327 326 328 326 323 324 327 327 327 327 326 325 325 326 329 330 325 323 330 332 332 332 331 333 334 330 328 329 335 338 333 327 328 336 345 347 345 346 345 346 347 346 347 345 345 346 347 349
305 307 305 304 304 301 301 305 305 305 310 313 314 313 313 312 311 314 320 317 321 327 325 322 325 323 323 324 324 324 323 325 325 323 324 324 324 325 325 325 326 326 329 326 319 323 329 327 326 327 327 325 325 326 328 331 327 328 332 333 331 333 332 333 332 329 330 330 326 330 334 329 326 335 344 346 345 346 347 346 346 348 349 347 345 346 347 347
304 306 306 305 305 303 302 304 306 306 308 310 312 312 312 312 313 317 319 319 324 326 326 325 325 323 324 324 324 324 325 326 327 325 324 325 325 326 326 325 327 326 328 327 324 326 328 327 328 327 327 326 326 328 330 329 330 330 332 332 332 333 333 333 331 327 328 327 322 326 330 327 326 332 339 341 342 345 347 346 347 349 349 347 347 346 346 346
304 306 306 305 305 304 303 305 308 310 310 311 312 312 312 313 316 318 317 320 323 325 327 326 325 326 326 324 324 325 324 325 329 328 326 326 326 327 326 326 327 327 328 328 327 327 328 329 329 328 327 328 328 328 329 329 330 331 331 331 330 332 333 332 331 328 325 323 323 325 328 328 326 330 335 339 341 344 345 345 346 348 346 346 347 347 347 348
303 304 305 305 305 303 302 306 311 312 312 313 313 312 311 313 317 317 318 322 322 325 327 327 327 327 326 325 326 325 324 326 328 329 327 327 327 326 326 326 326 326 326 327 327 327 328 329 328 329 328 329 328 328 329 329 329 330 331 329 326 326 327 325 326 326 322 320 323 325 328 328 324 328 336 341 343 344 343 345 345 345 344 345 349 351 349 348
303 304 304 305 305 303 303 306 310 311 312 311 310 312 312 314 315 315 320 323 320 324 327 327 328 328 327 327 327 326 325 326 329 329 328 328 327 327 326 325 326 323 320 322 325 325 327 328 329 330 329 329 328 326 326 328 328 329 328 326 320 319 321 321 320 322 320 320 324 327 327 325 325 332 339 341 342 342 342 343 343 344 345 345 349 350 349 350
302 303 304 305 305 305 305 306 306 307 309 310 310 312 313 314 315 316 319 321 321 326 328 327 328 327 327 327 327 327 325 325 328 328 328 328 328 328 326 326 327 324 320 322 322 321 323 326 329 329 329 329 328 325 322 322 325 326 325 322 319 318 319 319 320 320 320 320 324 328 327 323 324 333 340 340 340 341 342 342 343 344 345 346 348 347 348 351
302 303 304 305 306 307 307 307 305 304 309 312 311 312 313 314 317 317 319 320 322 327 327 327 327 327 328 327 327 328 326 325 328 328 329 329 326 327 326 326 327 327 325 323 321 320 319 320 325 327 328 329 328 326 325 324 325 326 328 327 322 319 319 319 319 319 318 319 322 326 325 321 322 332 340 339 340 342 341 342 342 343 346 346 346 346 348 349
304 303 303 304 308 309 309 309 308 308 312 314 311 311 313 314 316 317 320 322 323 325 325 326 328 325 326 326 328 328 326 326 327 327 329 328 327 327 327 327 327 328 326 321 320 323 319 320 326 329 329 330 328 327 329 327 323 326 329 326 321 323 324 320 319 320 319 320 321 322 324 326 329 336 340 339 339 341 341 343 342 344 345 344 344 345 346 350
305 305 304 306 310 313 314 313 312 312 314 314 311 312 312 313 316 317 320 323 323 324 325 325 325 323 322 324 326 328 328 327 327 327 326 327 328 327 327 327 327 327 326 322 322 323 319 320 328 330 328 330 328 327 328 326 323 325 324 321 323 329 328 321 319 321 321 319 322 322 323 328 332 335 337 339 339 340 341 341 340 343 345 342 343 342 345 352
305 306 307 309 311 312 314 316 315 314 315 314 312 312 313 314 316 318 320 322 322 324 323 320 322 322 319 321 324 327 327 327 327 326 325 326 327 327 328 328 327 326 327 326 325 326 323 321 329 332 328 330 330 328 327 328 326 323 320 322 326 328 328 324 320 320 319 318 321 322 321 323 324 328 335 339 338 340 340 340 340 342 343 343 342 341 348 352
307 308 310 312 313 312 314 316 316 315 315 314 313 314 313 313 316 316 318 319 320 322 322 319 321 323 321 319 322 327 327 324 325 326 324 325 325 328 329 328 327 328 327 327 326 328 326 320 326 333 329 329 331 328 326 326 329 325 324 327 326 320 319 322 320 320 318 318 320 320 321 322 322 326 334 336 338 338 340 343 342 339 343 343 341 345 348 349
309 311 312 314 315 314 315 316 316 316 316 314 313 314 314 313 316 317 317 318 318 319 319 319 321 323 323 323 323 328 328 323 324 325 323 323 325 327 330 329 329 328 328 328 327 328 328 321 321 330 332 329 328 326 321 322 326 326 325 328 327 321 320 321 321 320 318 318 321 320 320 321 326 331 335 337 340 341 339 343 345 338 340 341 340 347 348 346
310 311 311 314 316 316 316 316 315 315 316 316 315 315 315 314 316 316 316 317 317 318 318 319 320 321 323 325 324 327 328 327 326 324 323 325 325 326 330 329 329 329 328 329 327 326 329 324 319 326 331 327 324 325 324 323 325 323 321 321 322 324 324 322 321 321 320 320 320 320 318 321 329 337 338 339 343 340 340 344 346 342 338 339 340 345 348 347
309 310 311 313 314 315 316 315 314 314 314 315 316 316 316 316 317 318 318 317 318 319 318 318 319 320 321 324 324 325 327 327 327 326 325 326 325 324 328 329 329 330 328 329 328 326 327 325 320 321 325 323 323 327 329 327 327 325 322 320 321 322 321 319 319 320 321 321 320 320 319 322 331 340 339 339 341 339 339 341 343 340 338 339 338 340 346 350
308 310 311 313 312 312 313 313 314 315 313 314 315 315 317 317 317 318 318 319 319 318 319 319 318 318 319 322 325 325 326 325 326 326 325 326 327 325 327 329 329 330 329 328 328 329 328 327 322 320 322 326 328 331 329 327 329 328 325 325 324 324 321 317 317 319 319 320 321 321 319 323 334 342 340 339 343 340 338 340 341 339 338 339 338 337 343 348
308 309 310 310 310 311 312 312 312 313 313 314 314 314 315 315 316 317 317 318 319 318 319 319 318 319 319 319 323 324 324 323 324 325 326 328 328 327 328 329 329 330 330 328 328 330 330 326 322 321 326 329 330 331 331 330 329 327 326 327 326 324 323 322 323 324 320 318 320 320 319 323 333 346 345 343 345 340 338 341 341 338 338 337 337 339 342 343
308 308 308 307 307 309 310 310 311 311 312 313 313 313 314 314 314 315 316 316 318 318 319 319 319 319 319 319 320 322 322 321 322 325 326 326 327 328 329 328 328 329 328 329 329 328 326 326 322 320 322 324 325 326 326 328 328 326 326 328 326 325 326 325 325 326 322 320 320 320 319 323 332 348 348 341 339 338 337 339 337 338 340 337 338 345 346 345
307 307 308 308 308 309 309 310 310 310 311 312 313 313 314 315 315 316 316 316 317 317 317 319 319 319 319 319 319 319 320 319 320 323 325 325 327 329 328 327 330 328 329 338 339 329 326 327 326 320 318 320 320 320 321 323 325 325 327 327 327 327 325 322 321 320 320 323 325 321 320 327 335 344 345 340 338 341 341 339 337 338 338 339 347 351 348 349
307 307 308 309 309 309 310 310 311 312 313 313 313 314 313 314 315 315 316 316 317 318 317 319 320 319 319 319 318 319 319 319 319 321 322 324 326 327 328 330 328 330 338 344 343 333 328 330 330 326 323 321 323 325 327 327 324 322 324 326 326 327 327 325 319 316 319 324 324 326 328 330 335 339 340 340 339 340 343 339 339 341 338 342 352 352 349 348
307 306 308 308 308 309 309 311 312 313 313 312 311 312 312 313 313 314 314 314 316 317 317 317 318 320 319 318 318 317 317 318 319 320 321 322 323 326 329 328 328 339 344 339 336 335 330 327 329 331 328 326 328 331 330 329 325 323 324 324 325 327 326 324 319 319 324 321 318 330 341 333 332 338 339 343 343 344 344 342 339 341 339 341 346 349 349 350
306 307 307 307 307 307 308 309 310 311 310 310 310 310 310 311 312 312 313 313 314 315 315 316 316 317 319 319 320 321 321 322 320 318 319 320 321 324 327 327 328 340 342 333 330 335 331 326 327 328 326 327 330 330 330 329 328 326 326 325 325 326 325 323 322 324 328 322 319 333 346 337 333 336 337 340 344 342 341 338 338 338 339 338 339 342 348 350
306 306 307 307 307 308 308 308 309 308 308 309 310 309 309 310 311 311 312 312 312 312 313 314 314 314 315 316 317 320 321 321 322 322 322 323 322 323 323 325 328 332 333 328 329 333 330 328 330 328 326 327 329 330 330 331 328 327 327 327 326 327 325 324 325 326 328 327 326 334 342 340 336 334 335 337 339 338 337 337 338 337 337 338 338 338 340 342
306 306 307 307 307 308 308 308 308 308 308 309 309 309 308 308 309 309 310 310 311 311 311 311 312 312 313 314 316 318 318 316 317 318 319 321 322 324 324 325 325 327 327 326 328 331 328 328 333 330 325 325 328 329 328 329 328 327 327 328 327 327 326 324 326 326 326 328 328 330 334 335 336 335 337 337 338 339 341 340 339 337 336 337 336 337 337 334
306 306 307 307 306 307 307 307 308 307 307 308 308 308 308 308 308 308 309 310 310 310 310 311 312 311 312 313 315 316 315 315 315 316 317 318 319 321 323 325 326 325 325 326 328 329 329 328 331 330 323 322 327 329 327 328 329 326 325 328 327 325 325 325 326 327 325 327 328 326 325 329 334 336 334 335 337 340 342 341 340 339 338 337 337 335 335 336
306 306 307 307 306 306 306 307 307 307 307 307 308 308 308 308 308 308 309 310 310 311 311 312 312 312 312 312 313 314 314 314 315 315 317 318 320 321 321 324 327 326 325 326 325 328 329 328 328 327 322 322 326 328 328 327 324 322 324 328 329 328 328 326 327 328 327 327 325 322 323 331 337 337 335 335 336 337 339 338 336 338 338 337 339 336 335 337
Wind_Speed
16 17 16 15 16 15 15 15 16 16 16 16 16 16 17 16 17 16 16 16 16 16 17 18 18 18 19 19 19 20 23 25 24 25 26 22 14 13 13 11 11 11 12 10 10 14 16 18 19 17 15 17 16 15 17 9 8 8 2 5 5 8 5 3 2 2 5 7 8 11 11 11 8 10 11 12 15 16 18 15 13 13 17 22 25 29 30 28
17 17 17 16 16 16 16 16 16 16 16 16 16 17 17 17 17 16 17 17 17 17 17 18 18 18 19 20 21 22 25 26 28 31 27 21 17 17 17 16 17 16 15 13 14 17 18 19 19 17 16 17 16 15 16 13 14 9 4 4 5 7 7 2 4 1 3 7 8 10 11 11 10 11 11 12 14 15 15 14 15 18 19 24 28 29 29 29
17 17 17 17 17 17 17 17 17 17 17 17 17 17 17 17 17 17 17 16 17 17 17 18 18 19 19 20 21 23 25 28 31 29 20 15 17 19 18 16 15 16 16 15 16 18 18 17 18 18 18 17 16 16 17 16 16 13 8 3 6 9 10 8 2 4 4 7 8 8 11 12 10 11 12 12 14 12 13 13 15 21 23 27 30 29 29 29
18 18 18 18 18 17 17 18 18 18 19 18 18 18 17 18 17 17 17 17 17 17 17 18 18 19 18 19 20 21 24 25 20 9 5 7 11 15 14 12 11 13 14 15 17 18 17 17 17 18 18 15 16 17 14 15 14 12 10 5 7 8 8 10 5 5 7 7 7 7 8 11 10 10 11 14 12 9 13 16 16 23 27 28 30 31 30 29
19 19 18 18 18 18 18 18 18 19 19 19 19 19 19 18 18 18 17 17 17 17 17 17 18 19 19 19 18 19 19 13 3 6 7 4 4 7 9 10 10 10 12 16 17 18 18 18 18 18 17 13 14 15 12 17 15 9 10 8 5 6 10 11 6 6 8 7 8 7 6 9 11 8 9 14 8 7 14 18 20 24 28 29 31 32 30 30
19 19 19 19 19 19 19 18 19 19 19 20 20 20 20 20 19 19 18 17 17 17 17 17 17 17 18 18 17 17 12 6 1 2 5 6 8 11 12 12 11 10 12 17 18 19 19 19 19 18 15 12 14 13 13 20 17 8 9 10 7 4 14 17 6 7 8 9 9 7 6 9 10 7 9 11 7 10 18 18 22 25 28 30 30 30 30 30
19 19 19 20 19 19 19 19 19 20 20 20 20 21 20 20 20 20 19 18 17 17 17 17 17 17 18 16 17 16 14 18 18 14 16 14 14 15 15 12 11 10 13 19 20 19 20 20 19 18 14 11 13 15 16 20 20 13 9 13 14 13 20 21 8 9 9 10 10 8 7 9 9 7 10 9 3 11 19 19 22 25 27 29 28 29 29 30
19 19 19 20 20 19 19 19 19 20 20 20 21 21 21 21 20 20 20 18 17 17 16 17 16 16 17 14 15 14 19 25 18 14 16 14 12 14 13 10 10 10 15 21 21 19 19 20 21 18 13 12 14 15 17 18 17 15 11 12 13 13 18 16 10 10 11 9 10 11 9 9 9 8 10 10 7 10 18 21 23 25 27 28 28 29 29 29
18 19 19 19 20 19 19 20 19 20 20 20 21 21 22 21 21 20 19 19 18 17 16 16 16 16 16 15 12 13 19 18 9 6 9 9 10 11 10 9 10 10 15 20 20 20 19 19 21 19 14 14 16 16 17 13 9 10 10 10 8 9 12 12 14 12 14 12 12 12 11 10 9 9 9 12 13 11 18 22 23 25 26 26 26 28 28 29
19 19 19 19 19 19 19 20 20 20 20 20 20 21 21 22 22 21 20 19 18 17 16 16 16 16 15 13 9 12 14 9 7 7 7 5 7 8 7 9 12 11 15 18 19 20 19 18 18 19 18 16 16 17 17 13 9 13 13 11 10 12 13 13 16 11 11 13 13 12 11 12 11 9 8 14 16 12 20 23 23 25 26 26 26 27 28 28
19 20 20 20 19 19 20 20 20 20 20 20 20 21 21 21 22 21 20 19 18 17 16 16 15 16 15 11 11 14 12 7 8 8 7 7 9 10 9 11 14 13 15 17 19 20 20 19 17 16 15 13 16 17 17 17 15 16 14 11 11 12 13 16 17 11 8 10 15 14 11 12 12 9 7 15 17 15 21 23 24 24 25 26 26 27 28 27
20 21 21 21 20 20 20 21 21 20 20 20 20 20 21 21 21 21 20 19 19 18 16 16 15 15 14 12 21 20 11 12 13 10 10 11 12 13 12 13 14 14 15 16 17 18 18 19 18 17 15 12 14 14 14 20 20 18 15 10 11 12 13 16 16 9 7 9 16 15 10 11 11 9 10 17 16 17 21 22 24 24 24 26 25 27 27 27
20 22 22 22 21 21 21 21 21 21 20 20 20 20 20 20 20 20 20 19 19 18 17 16 15 15 12 15 27 23 13 16 18 16 16 14 14 14 14 15 15 15 16 16 16 16 17 18 19 20 19 16 13 12 15 19 16 16 16 9 8 11 11 13 14 9 9 11 17 15 8 9 11 9 13 18 16 18 21 21 23 23 24 25 24 26 27 26
21 22 22 22 21 21 21 21 22 21 21 21 20 20 20 19 19 19 19 19 18 18 18 16 14 11 11 19 27 23 17 19 19 19 19 17 16 16 16 17 16 16 16 17 16 15 16 17 18 19 19 20 17 16 17 13 9 11 13 9 7 8 7 11 12 10 10 12 17 15 6 7 12 12 15 19 18 19 21 21 22 22 24 24 24 25 26 26
21 22 22 22 21 21 21 21 22 21 21 21 20 19 20 19 18 18 18 18 18 18 17 13 10 7 11 24 27 19 14 19 22 21 19 18 19 18 18 18 18 18 17 17 17 15 14 15 18 18 17 20 20 16 12 9 7 9 11 9 8 8 6 8 10 11 10 11 16 14 6 6 9 11 17 20 18 19 20 21 22 22 24 24 25 25 25 26
22 22 22 22 21 20 20 21 21 21 22 20 20 19 19 19 18 17 18 18 17 17 14 8 7 6 9 15 14 11 11 18 22 20 17 18 18 18 18 18 18 18 18 18 16 15 15 14 17 18 16 16 15 12 8 8 9 9 9 9 10 11 7 6 10 14 11 10 13 13 7 6 5 10 18 21 18 20 20 21 22 22 24 24 24 25 24 25
23 23 23 24 22 21 21 21 21 21 21 20 19 19 18 18 18 18 18 17 16 14 11 5 2 7 14 14 11 12 13 16 16 15 15 15 17 17 16 18 18 18 18 17 16 17 17 16 14 14 15 13 11 11 9 9 9 8 9 9 10 12 8 6 8 13 14 11 12 14 10 7 7 12 18 23 20 21 20 21 23 22 23 24 24 25 25 26
24 24 24 24 23 22 21 21 21 21 21 18 17 18 17 17 19 20 19 15 11 9 9 8 7 5 14 17 15 16 15 15 13 13 15 13 15 16 15 17 16 17 18 16 17 19 18 17 13 10 11 12 11 11 11 11 10 9 10 9 9 12 10 9 8 10 15 13 12 14 10 7 8 8 13 22 21 21 20 21 23 22 23 24 24 25 25 26
26 25 24 24 24 23 21 21 21 20 21 18 15 16 16 15 16 14 10 9 8 6 6 10 16 9 9 10 10 10 12 14 14 14 15 14 13 13 13 14 16 18 18 13 15 20 16 12 12 11 11 13 14 14 14 15 16 15 12 11 10 11 9 9 10 11 14 14 11 13 11 8 9 7 10 19 20 20 20 21 22 22 23 24 24 25 26 27
26 26 25 23 23 23 22 21 19 19 19 17 15 13 12 12 10 4 0 9 17 15 15 14 19 20 19 18 12 7 7 11 15 15 16 14 12 13 14 15 17 18 16 11 12 18 16 11 11 13 14 16 18 20 19 18 19 19 14 12 14 12 7 8 14 16 15 13 11 13 13 11 12 10 12 16 19 19 20 20 21 23 23 24 25 24 26 27
27 27 26 23 22 23 22 20 19 16 15 16 14 11 10 11 7 6 9 13 21 23 27 28 25 26 27 24 20 13 9 11 17 18 16 15 13 12 14 16 16 12 14 15 13 16 16 12 14 17 18 19 20 21 21 20 21 20 15 13 14 12 8 10 14 17 17 12 11 14 15 13 15 14 14 15 16 17 19 20 20 23 24 24 26 26 26 26
27 28 27 24 21 22 21 19 17 13 12 12 11 9 10 10 7 10 14 16 22 25 30 32 32 33 31 29 27 22 18 15 18 21 19 17 16 13 14 16 14 11 14 16 12 12 14 14 18 20 19 20 20 21 22 22 21 18 14 13 12 9 8 11 12 15 18 10 10 16 14 12 16 16 14 16 16 16 20 21 21 23 24 25 26 26 26 26
27 27 28 26 23 21 19 17 12 10 12 12 11 11 11 10 9 12 13 16 22 25 29 32 34 35 33 32 29 26 24 20 17 21 22 20 20 19 15 14 14 14 14 16 14 12 11 13 18 19 19 21 22 22 22 21 18 15 13 12 11 11 10 9 8 13 18 10 9 13 12 9 11 13 12 14 16 17 20 22 22 23 24 25 26 26 26 27
26 27 27 27 24 20 18 13 7 8 11 13 14 13 10 10 10 13 14 14 16 19 27 33 34 34 33 30 26 27 28 24 20 21 22 22 22 20 17 15 15 14 15 18 20 17 14 14 17 20 20 22 22 22 22 17 14 16 17 14 12 13 14 10 8 9 15 13 10 9 8 7 9 12 12 12 16 17 18 19 20 22 25 25 26 27 27 28
24 26 27 26 24 21 16 8 3 5 8 10 11 8 7 10 11 12 12 10 10 14 21 25 27 29 31 26 24 27 26 24 26 24 22 25 23 17 15 16 14 13 17 20 20 17 16 16 18 20 21 23 22 21 22 17 12 15 19 19 18 17 16 13 11 10 10 10 10 9 8 7 9 13 14 14 14 14 15 17 19 21 23 24 25 27 28 28
24 24 26 25 23 22 15 5 4 10 8 6 6 6 9 11 12 11 8 7 7 10 12 16 17 18 24 24 25 26 20 20 27 27 24 25 26 21 15 13 12 13 17 17 14 10 13 19 19 19 21 24 22 19 22 21 13 12 16 20 23 22 19 15 14 12 9 8 10 10 9 6 8 13 14 15 15 14 14 15 18 21 22 23 24 25 27 28
25 23 25 24 20 20 17 9 9 12 9 7 8 10 13 12 12 11 6 6 6 7 9 14 13 11 18 24 26 21 12 13 22 28 29 26 28 26 17 12 12 13 13 11 10 9 13 20 20 19 21 20 19 17 20 22 15 11 15 20 22 22 23 19 15 12 8 9 11 13 12 8 7 11 13 15 13 13 16 16 17 20 23 24 24 25 26 28
26 22 23 24 19 14 14 16 16 13 10 10 13 14 13 12 12 9 5 6 4 3 10 11 8 8 13 19 27 23 14 11 13 23 32 28 28 26 18 17 15 14 15 12 10 12 14 20 21 20 19 16 16 18 21 23 17 14 17 19 19 20 21 20 14 11 10 10 9 11 12 8 8 9 11 14 13 12 17 18 17 18 21 24 25 25 26 28
26 23 21 23 20 11 9 15 18 12 8 11 14 13 12 13 11 6 5 6 4 1 7 10 8 10 13 16 23 25 20 14 10 18 30 28 28 25 16 18 19 15 18 16 13 13 13 18 21 20 17 14 16 19 21 22 17 16 19 19 17 17 18 17 14 11 11 9 9 12 13 8 8 8 10 11 13 14 16 14 13 17 22 24 26 27 26 26
25 23 20 22 22 14 11 13 11 11 10 12 13 13 13 12 8 6 8 6 3 3 7 10 11 14 16 15 17 21 20 17 12 16 26 25 27 26 19 20 20 15 15 17 17 16 16 18 19 18 16 13 16 18 20 22 20 18 19 17 15 15 14 14 12 11 10 9 11 14 14 11 9 9 10 11 12 14 15 13 14 20 26 27 27 27 26 25
23 22 19 20 20 17 15 10 2 6 7 8 11 12 11 8 5 7 8 4 4 6 7 8 11 16 19 17 14 17 19 16 13 15 18 17 21 21 17 16 15 12 12 13 15 17 19 17 14 15 19 17 15 17 19 22 22 18 15 13 12 11 11 11 10 11 10 9 12 15 17 16 11 9 10 13 15 17 16 16 20 24 27 28 28 28 28 27
23 21 20 18 17 17 18 10 3 8 10 6 10 10 7 6 8 10 8 1 3 8 9 11 13 14 19 20 15 17 18 15 14 15 15 14 14 15 15 12 10 10 11 11 12 15 16 17 14 15 20 21 16 14 14 17 19 17 15 12 11 9 8 9 9 8 10 10 12 17 19 16 12 11 13 15 17 19 18 17 20 22 26 28 28 29 30 31
24 21 20 16 14 19 20 13 9 13 12 9 11 9 6 8 9 11 11 7 4 3 6 12 14 15 18 18 15 17 18 16 16 16 16 16 13 14 19 18 15 12 10 11 12 12 11 15 19 16 15 19 19 13 11 13 15 17 16 12 11 10 9 10 9 9 11 11 13 18 17 13 11 11 15 18 18 18 20 23 24 23 27 30 30 32 32 33
26 22 21 17 14 18 18 12 9 10 9 9 10 7 9 12 9 8 12 13 10 9 6 5 10 15 17 16 15 16 16 15 18 17 16 16 14 13 16 20 22 16 10 11 11 11 12 12 16 17 11 15 21 18 13 13 15 16 14 12 12 11 9 9 9 9 10 9 12 17 14 10 9 8 14 19 20 20 22 25 26 23 25 29 31 32 33 33
27 22 20 17 13 14 13 12 10 9 9 10 9 8 12 13 8 8 10 11 12 14 14 11 10 13 15 15 16 18 16 14 19 19 15 15 14 13 14 17 22 20 12 11 8 10 15 11 13 19 16 16 20 19 16 15 13 12 12 12 14 13 10 9 10 11 11 9 10 12 9 7 9 8 9 14 17 20 21 21 23 22 23 26 29 31 33 34
28 24 23 19 15 14 13 12 10 10 13 12 9 11 13 10 8 8 8 8 11 13 15 15 13 11 12 12 14 20 19 15 18 17 14 17 17 17 17 14 20 22 16 11 7 8 12 10 13 20 20 20 19 17 18 16 11 9 12 15 15 16 15 10 11 13 13 11 9 8 9 9 10 9 10 12 14 16 17 18 20 22 27 28 29 31 35 36
28 26 26 22 15 13 12 13 12 13 15 12 11 13 11 10 13 12 11 12 13 13 13 13 12 12 13 11 12 18 19 16 17 15 12 16 16 18 20 16 20 25 22 16 10 9 10 9 13 20 21 22 21 19 20 20 16 10 11 15 15 17 16 10 8 10 12 11 8 11 14 12 9 8 11 16 17 15 16 17 18 19 25 28 28 30 39 39
27 27 28 21 8 8 11 12 12 13 14 12 14 16 11 11 16 16 17 18 18 16 14 11 10 12 14 13 12 17 19 15 15 14 13 13 13 17 21 17 19 24 26 23 14 9 10 9 11 18 19 19 20 18 16 21 25 20 13 12 12 13 13 9 7 10 12 11 8 13 15 12 11 9 10 16 17 16 17 16 17 17 19 25 27 31 42 40
24 23 22 12 5 5 10 10 11 14 14 11 12 13 11 14 19 23 27 24 19 17 15 14 13 12 14 15 13 15 18 16 15 14 12 11 11 17 21 17 17 22 26 25 15 9 10 8 8 14 17 17 16 14 13 15 21 22 17 13 11 11 11 10 9 10 10 9 9 13 13 10 10 10 12 15 15 18 17 12 14 16 16 22 23 30 46 44
20 17 15 8 2 3 6 7 12 13 11 11 12 11 11 14 18 24 32 28 19 15 13 14 15 13 14 17 15 14 16 17 18 15 12 12 12 15 20 19 17 20 24 26 19 13 10 8 8 10 15 16 12 12 15 13 14 16 15 15 13 10 9 10 11 10 10 9 9 11 11 9 8 9 14 14 11 13 13 8 9 14 19 24 21 23 42 46
17 12 12 8 2 1 6 10 12 11 9 10 13 13 14 15 16 20 27 27 22 20 19 18 17 15 15 15 15 14 14 15 18 15 12 14 14 11 16 19 18 18 20 21 19 14 9 8 9 9 11 14 13 15 18 17 15 14 14 15 15 12 10 11 11 11 11 10 9 9 9 8 8 8 10 11 9 10 13 13 11 14 23 26 24 25 35 43
16 11 12 11 8 10 11 12 10 11 11 11 14 16 17 17 17 19 23 26 23 20 21 20 19 18 16 16 16 15 14 14 16 15 13 16 18 14 14 19 20 20 17 15 17 17 11 7 9 11 10 12 16 19 21 21 20 17 15 16 16 14 12 11 10 11 12 13 13 11 10 8 8 8 8 9 9 10 16 16 13 17 25 27 26 26 30 41
15 15 21 23 20 19 15 10 11 11 11 15 19 21 21 18 16 18 20 21 19 17 17 16 18 19 16 16 18 16 15 14 16 19 16 16 19 20 19 22 23 21 16 12 14 16 13 9 8 10 10 11 16 19 20 21 20 17 15 16 17 17 17 14 11 9 11 14 15 12 10 9 8 7 8 7 7 9 15 16 13 16 21 26 27 24 26 40
18 22 26 24 19 18 15 10 10 10 11 18 20 21 24 22 19 19 19 18 16 15 15 15 17 19 17 17 17 17 16 13 15 19 17 15 18 23 27 28 25 19 15 13 13 13 11 9 9 9 9 10 12 14 17 18 16 12 13 16 18 21 23 19 13 9 9 14 16 12 9 10 9 7 6 7 9 12 14 15 16 14 14 21 24 21 26 35
19 18 20 20 16 19 19 15 13 12 13 17 16 16 17 17 19 20 19 20 21 19 17 16 19 19 17 19 20 20 19 15 13 14 14 15 15 16 24 29 26 20 14 11 14 16 12 9 10 10 11 12 11 11 11 13 12 11 14 20 21 24 26 20 13 10 9 11 14 13 9 8 11 11 9 10 12 11 11 14 17 17 16 16 18 24 32 34
14 11 11 14 14 16 19 21 19 11 8 10 11 12 14 14 16 22 22 17 18 20 18 17 21 21 18 18 19 19 21 20 16 13 13 15 13 12 20 26 25 20 7 2 3 12 11 9 12 13 12 12 11 10 10 13 14 15 18 23 23 23 25 19 13 12 11 8 9 11 11 8 9 13 14 13 11 8 7 10 10 10 13 15 24 29 30 31
12 8 8 9 9 12 14 16 14 5 5 8 7 9 16 16 14 19 18 14 17 20 15 12 15 17 18 18 17 18 21 23 21 18 18 17 15 15 20 24 21 13 9 2 4 6 8 11 18 20 19 18 14 14 16 17 18 19 21 24 23 23 24 21 16 16 14 10 9 11 11 10 10 12 12 10 9 6 3 6 11 9 10 14 20 28 28 28
11 11 14 13 8 8 10 12 14 10 9 11 7 8 16 18 15 15 14 14 19 19 12 10 15 17 14 14 13 11 13 15 18 18 18 17 17 17 16 20 19 12 11 10 10 6 8 14 20 22 23 24 22 20 20 18 17 19 21 23 24 24 25 23 20 20 17 12 11 10 11 11 13 14 15 10 7 8 8 11 17 17 16 19 18 21 25 27
13 14 16 15 12 12 15 17 19 17 14 13 9 8 13 16 17 16 12 12 15 15 12 12 16 21 21 18 14 10 10 10 10 12 14 14 16 16 12 15 19 15 15 16 12 7 8 10 16 19 19 24 26 24 23 20 18 20 21 21 22 23 25 25 23 23 22 17 17 15 12 13 14 15 18 16 11 12 15 18 21 22 20 16 15 14 18 22
16 13 12 15 16 18 20 20 17 14 13 12 10 10 13 14 15 16 13 11 13 12 12 15 19 21 19 18 15 11 13 14 13 15 18 16 14 13 10 10 15 17 18 16 11 11 10 9 14 17 14 18 24 25 26 24 21 20 20 20 20 21 24 24 22 21 19 17 20 22 17 12 11 11 15 17 14 14 14 14 18 22 23 20 16 16 17 19
17 15 12 11 12 15 18 16 12 10 9 9 10 11 13 15 15 15 14 12 15 15 12 14 18 18 17 17 15 14 18 20 19 21 23 19 15 16 13 11 15 16 17 16 13 13 12 9 11 14 12 13 19 23 26 26 23 22 21 22 23 22 20 19 19 19 17 16 17 20 17 11 8 11 14 17 16 15 12 12 14 17 21 24 23 20 19 19
15 15 12 8 9 12 14 12 11 10 9 9 11 12 13 16 16 14 13 11 13 15 13 13 14 14 14 15 15 17 23 26 27 29 30 27 25 24 22 20 21 16 12 16 16 15 13 9 9 11 11 11 16 20 20 20 19 18 18 21 22 20 19 19 18 18 19 17 14 12 12 9 7 10 14 17 18 17 15 18 22 21 19 23 24 23 25 26
Wind_Direction
322 322 322 322 322 321 319 317 316 315 313 311 310 308 306 305 303 301 299 297 296 296 294 292 292 293 295 295 295 295 297 299 300 298 285 273 269 260 260 253 237 235 243 239 199 188 191 197 203 206 219 220 222 210 176 177 195 159 167 248 259 263 272 100 131 0 102 120 139 162 145 134 137 116 121 129 129 140 140 136 137 135 138 136 139 146 145 147
320 320 319 320 320 319 319 317 316 314 313 313 312 311 310 308 306 304 301 299 296 295 294 292 291 290 294 294 296 298 297 299 300 294 278 263 262 254 254 255 247 245 240 226 203 197 198 199 203 210 220 221 224 210 182 195 204 188 219 246 260 270 300 356 146 128 131 146 151 163 149 140 140 131 156 152 134 147 141 134 136 132 137 137 141 148 148 151
317 317 316 317 317 317 317 315 314 313 312 312 311 311 310 309 308 307 304 302 299 297 294 292 290 290 291 292 296 297 300 305 301 289 275 257 247 242 247 249 243 241 232 220 207 204 205 204 207 209 216 224 226 208 188 197 205 200 203 232 260 257 288 293 193 139 155 154 152 169 153 138 141 150 173 153 136 161 151 142 145 137 142 143 145 150 151 155
318 316 316 316 315 315 314 313 312 311 311 310 311 310 308 308 307 307 306 304 303 299 297 294 291 290 290 292 295 298 306 307 299 278 227 228 229 233 243 240 235 241 230 213 207 212 214 211 213 210 215 227 227 219 201 193 189 195 206 210 247 259 277 265 230 154 150 158 158 162 156 139 146 165 172 152 145 172 157 152 151 142 148 149 150 154 156 158
320 318 316 316 315 314 313 312 310 309 309 308 309 308 307 307 305 305 305 305 305 302 301 297 294 292 290 293 293 299 310 309 314 122 149 178 209 239 256 247 236 244 228 206 211 222 218 216 218 213 218 230 231 226 212 206 194 190 219 226 256 300 285 254 218 161 150 160 160 157 175 147 149 180 169 156 169 173 153 156 151 148 154 155 155 156 158 160
321 320 318 317 316 315 314 312 310 308 308 307 307 306 306 305 304 304 303 304 304 303 302 300 298 295 292 294 294 297 300 284 261 180 229 252 270 277 285 266 241 243 223 202 213 225 216 217 221 217 218 226 241 238 214 211 205 199 216 227 235 243 269 264 211 163 170 170 166 165 167 146 161 179 155 166 201 160 148 153 150 151 156 156 157 158 160 161
323 322 319 317 316 315 314 313 310 308 307 307 306 305 305 304 304 304 303 304 302 302 302 301 301 297 295 294 294 290 264 262 274 267 255 256 264 276 285 263 238 242 217 200 212 221 212 214 219 220 222 222 238 245 241 227 211 206 191 203 212 203 243 255 209 172 187 178 165 168 162 161 183 161 148 174 185 135 139 147 149 150 156 158 160 162 164 163
326 325 321 317 316 315 313 312 309 307 306 306 305 305 304 303 304 303 304 304 302 302 299 299 300 298 298 295 296 285 260 263 265 248 245 250 262 272 274 247 228 234 210 201 210 215 211 214 217 219 227 230 233 233 247 252 226 209 189 197 211 205 229 242 228 195 175 175 168 172 174 177 187 159 166 169 132 132 136 141 148 150 156 160 164 167 166 166
330 326 323 320 317 316 313 312 309 307 305 305 304 303 303 303 303 304 304 305 304 303 299 298 297 296 297 295 293 277 270 266 234 225 260 263 264 260 258 229 216 217 206 206 212 215 213 215 217 220 230 235 241 236 233 247 244 233 212 200 223 234 231 237 243 210 162 171 177 177 179 179 179 166 181 159 139 145 138 143 151 153 160 163 167 170 168 169
330 327 325 321 319 318 315 314 311 308 306 304 303 302 302 302 303 304 304 305 304 302 301 296 293 295 294 295 284 265 274 265 220 261 279 247 231 232 237 214 205 205 207 211 214 218 217 217 218 222 237 242 246 246 237 233 234 250 240 203 215 241 238 245 254 225 170 171 175 186 182 174 173 176 192 149 143 155 143 147 154 157 165 165 168 171 170 173
329 327 326 322 321 320 318 316 314 310 308 305 303 301 300 301 301 303 303 304 303 302 300 294 293 291 288 281 254 253 263 253 248 256 233 218 218 222 229 211 206 208 212 215 215 219 220 223 224 224 234 242 250 251 249 250 245 245 239 206 211 237 239 247 251 222 187 175 176 190 183 172 173 187 192 143 148 169 152 150 155 161 168 166 170 171 171 176
327 326 326 324 323 322 320 318 316 314 312 308 304 302 300 300 300 300 301 302 301 301 297 294 292 286 285 262 246 255 266 261 265 259 236 233 227 227 230 222 217 215 217 218 217 219 222 225 229 232 232 231 243 251 249 250 255 260 254 220 204 223 231 241 247 217 182 181 181 188 181 179 182 190 177 149 159 170 154 153 158 163 168 168 171 171 173 179
324 325 325 325 324 323 322 320 318 317 314 311 308 305 301 299 299 298 298 299 299 299 296 294 291 284 276 254 256 270 283 270 266 260 251 242 234 233 229 228 227 223 223 226 224 220 222 226 229 235 240 240 237 245 251 241 244 263 268 259 220 221 217 224 240 217 187 182 179 187 189 187 189 188 169 154 166 169 157 159 162 164 167 169 174 172 175 181
321 322 323 324 323 323 322 320 319 318 316 314 311 308 304 301 299 296 295 296 295 295 295 293 291 278 249 260 276 282 270 261 258 252 252 246 237 234 228 226 228 228 228 230 233 228 224 224 229 237 240 245 250 255 261 253 237 246 252 257 247 245 221 206 221 210 189 172 176 193 201 193 189 178 164 158 169 173 164 163 165 167 167 170 174 173 179 183
319 320 322 322 322 321 321 319 318 319 317 314 312 309 306 304 299 296 293 291 291 290 292 292 284 264 251 272 287 292 260 240 243 245 247 243 234 233 229 222 224 227 228 229 232 233 232 223 222 232 234 238 250 258 262 262 245 238 237 233 224 240 235 202 206 206 191 164 181 204 206 190 196 182 170 164 173 180 172 168 169 171 171 172 174 175 181 185
320 321 323 323 322 321 320 318 318 319 317 315 314 310 307 306 301 296 290 285 285 283 283 289 294 283 271 281 286 284 251 229 237 244 240 236 227 226 225 219 221 224 225 225 225 227 230 228 222 225 231 231 236 245 255 257 241 222 228 237 225 219 211 197 199 197 190 172 186 213 215 172 211 226 185 167 176 185 178 173 176 178 175 174 175 177 182 185
322 323 324 324 322 322 321 319 319 319 317 318 315 311 309 306 299 293 286 281 276 273 271 253 271 279 261 269 277 265 247 229 235 234 225 224 217 218 217 214 215 215 217 219 220 223 219 220 223 221 227 229 223 227 232 241 241 221 217 233 243 235 212 189 195 189 189 191 188 205 221 170 196 232 186 169 181 186 183 179 180 183 178 176 178 179 182 184
323 323 324 325 323 322 323 319 321 321 318 320 319 314 313 306 297 291 283 278 268 264 275 234 197 261 252 249 261 258 243 227 226 221 210 209 212 217 215 208 208 206 209 212 213 217 213 209 215 217 218 221 220 220 220 224 233 231 217 215 238 244 225 191 186 186 188 198 193 195 214 168 173 231 182 173 185 186 187 184 182 186 182 178 181 183 183 185
322 322 324 326 323 322 324 321 322 323 320 322 324 316 313 309 301 295 276 253 227 214 267 214 189 215 261 260 257 251 245 223 209 210 204 202 207 214 217 208 204 203 202 205 205 206 206 202 211 218 215 212 213 218 222 224 232 240 232 218 224 232 225 199 191 192 190 201 199 193 209 164 153 230 204 180 188 191 190 187 185 188 185 181 185 188 186 186
320 320 322 325 323 321 323 323 322 324 322 324 334 328 320 321 308 307 106 231 231 238 267 246 209 226 261 278 271 249 247 209 194 206 204 198 201 205 213 209 204 205 206 208 198 197 205 209 212 216 215 212 212 219 226 227 234 245 247 236 235 234 225 213 209 199 191 201 200 199 211 170 152 210 212 187 194 193 192 192 188 188 187 186 188 192 191 189
320 320 321 324 323 320 322 324 321 323 323 325 340 339 329 342 331 324 334 279 251 250 260 260 248 245 253 262 259 250 249 207 193 209 209 199 208 211 206 205 210 208 206 215 206 196 207 220 219 216 217 217 215 217 224 231 235 240 249 251 247 240 219 228 226 195 184 198 198 200 212 180 166 200 201 192 203 199 195 196 192 192 191 189 190 192 193 191
321 320 320 323 323 321 322 324 322 322 328 331 338 330 321 337 332 317 319 292 272 260 254 257 256 253 251 251 252 253 256 239 209 209 212 210 218 221 203 198 214 215 202 212 214 198 208 224 222 216 216 218 220 219 220 228 236 237 244 253 256 248 222 233 235 185 174 199 200 193 212 196 177 193 199 199 204 201 204 202 196 196 191 189 191 192 193 192
321 321 321 322 324 324 323 327 333 337 340 338 324 308 311 320 317 318 308 285 283 270 250 246 246 245 245 242 240 240 243 244 228 213 208 210 218 221 214 204 213 220 208 207 214 210 212 221 221 219 217 216 219 221 219 223 233 238 240 245 252 256 244 231 225 185 172 194 216 191 203 213 185 183 201 219 212 199 206 210 203 199 194 192 194 193 194 193
321 321 321 323 324 326 328 331 350 355 333 319 304 290 300 318 319 324 312 282 280 272 251 239 235 235 235 233 228 227 231 232 233 226 207 205 215 217 221 218 213 221 218 210 216 223 226 218 213 218 219 217 218 219 221 221 224 233 237 241 244 250 251 238 231 207 175 184 219 200 195 219 208 190 189 222 228 205 200 212 212 205 200 199 196 194 195 196
323 322 322 325 326 326 330 332 330 326 310 304 310 302 308 321 320 328 319 281 264 271 259 236 227 231 228 224 219 217 224 226 225 226 214 207 211 212 218 221 217 222 222 217 219 226 232 222 208 212 218 217 219 218 219 222 222 227 231 239 245 248 248 235 228 226 193 192 210 206 216 218 214 215 198 194 212 210 200 209 218 213 205 202 198 194 195 198
325 324 324 325 327 328 330 329 285 299 309 329 341 337 329 320 314 323 315 276 262 265 248 205 200 217 211 207 208 209 219 228 222 221 220 213 210 213 217 215 218 225 224 222 225 227 229 228 216 210 213 216 219 221 218 219 226 227 222 230 241 249 252 239 227 230 216 208 204 205 231 231 211 225 211 189 196 212 208 206 215 214 205 203 203 200 196 196
328 327 326 324 329 333 327 317 302 295 301 341 345 327 323 316 309 318 302 267 264 232 193 170 169 182 193 194 192 196 209 217 213 214 218 214 206 212 221 216 215 224 226 223 226 225 218 225 225 212 211 215 217 220 216 216 224 231 222 224 230 240 252 247 233 236 228 212 208 205 218 238 232 225 213 196 197 217 215 208 215 213 203 200 206 206 199 196
330 329 326 321 324 332 320 312 314 299 275 303 324 316 314 313 308 311 282 266 290 155 149 157 165 165 189 190 182 192 210 210 206 203 209 211 199 204 220 224 221 217 221 227 227 225 216 220 224 217 213 216 217 217 215 216 223 231 229 231 228 227 244 254 247 243 238 225 218 204 205 232 242 221 214 204 199 218 222 213 212 210 203 200 203 208 205 200
330 329 328 320 316 318 299 297 309 312 282 288 308 309 310 310 301 290 252 259 308 337 152 156 163 173 189 183 181 199 214 226 232 188 196 205 197 202 220 226 231 226 219 230 237 232 223 218 222 224 220 216 219 218 216 219 222 228 232 238 239 228 229 241 245 252 253 244 233 211 201 222 246 226 219 214 205 211 218 213 211 212 213 209 202 205 208 204
331 329 328 318 315 315 292 282 308 343 335 308 304 305 305 299 280 244 228 231 260 216 149 149 167 179 188 183 187 205 208 222 229 177 185 196 192 206 225 221 231 241 224 226 235 242 241 222 215 227 230 218 219 221 219 223 224 226 231 235 242 241 234 229 226 238 254 250 242 229 209 206 231 234 223 223 217 213 209 201 206 214 218 214 203 201 206 203
332 329 327 317 315 312 293 278 343 358 322 311 308 300 293 281 247 231 225 224 254 214 142 151 184 180 186 190 192 202 203 212 213 178 183 192 187 202 220 217 222 237 235 226 225 235 243 233 213 220 230 222 219 222 219 221 223 224 226 229 234 239 244 242 229 224 235 244 244 240 229 217 222 228 222 223 219 219 217 204 205 211 212 206 197 199 207 206
330 327 322 316 307 294 280 272 252 242 244 288 311 293 271 243 227 229 226 197 251 220 180 185 199 186 190 199 197 196 200 207 203 185 184 192 191 197 207 211 204 209 227 227 218 221 231 238 229 214 218 222 223 220 215 216 219 221 220 222 227 226 229 237 240 233 232 236 232 232 232 231 235 229 221 227 221 216 220 218 215 209 199 196 196 200 204 203
328 327 321 316 300 283 280 281 260 244 252 287 294 277 241 237 230 218 223 228 240 248 188 187 203 200 194 203 206 196 198 205 200 191 190 195 199 200 206 213 210 207 218 221 220 217 217 230 234 222 205 213 223 220 208 210 214 218 215 211 217 222 220 221 231 240 235 233 235 238 237 236 247 232 213 226 230 220 219 220 221 211 192 190 199 204 202 201
326 327 320 312 293 279 280 284 264 249 266 274 266 249 223 233 233 211 221 229 243 280 276 206 210 210 201 206 212 200 198 206 204 197 193 198 205 206 205 211 214 216 220 221 221 219 219 219 222 225 205 197 217 222 211 211 217 217 212 211 220 224 223 223 225 233 238 239 241 244 242 233 243 228 201 213 224 224 221 219 219 212 192 189 200 205 201 198
324 327 320 313 296 278 276 278 265 246 247 247 241 230 223 227 231 226 232 232 241 262 271 262 243 225 212 209 213 211 209 207 205 204 201 202 210 211 204 207 212 214 217 221 220 217 228 226 208 219 220 202 211 220 213 216 221 213 207 215 224 224 224 234 239 238 238 238 237 241 245 235 237 236 208 207 216 219 219 219 216 202 189 196 210 208 197 192
324 327 323 314 293 277 267 254 241 223 224 231 230 227 228 234 237 235 243 244 239 246 258 257 245 236 226 214 211 214 217 212 203 205 207 207 213 216 212 206 205 211 215 216 221 217 226 231 205 209 219 213 210 212 210 217 220 205 208 217 222 223 225 235 246 245 240 236 235 236 242 239 232 236 229 220 220 217 213 220 218 196 187 201 216 208 192 185
329 331 323 311 282 256 240 222 210 208 217 225 233 235 237 244 248 254 265 272 273 263 256 249 237 236 234 225 215 210 214 217 206 204 208 207 212 216 215 213 204 208 215 219 229 229 227 238 214 206 212 211 208 209 210 217 223 218 211 210 213 222 226 229 237 240 235 236 239 234 239 242 232 229 221 216 219 216 210 218 223 204 188 199 214 201 185 183
336 331 316 316 300 222 210 202 197 207 218 227 240 244 251 254 252 260 269 276 287 282 266 257 241 234 234 232 223 211 211 214 209 210 213 209 212 210 211 218 208 204 211 217 227 230 226 242 222 209 210 202 198 207 213 212 218 229 233 210 204 217 219 215 225 236 234 233 238 238 239 239 238 238 218 213 219 215 204 202 217 217 193 199 209 188 177 182
338 324 306 327 22 184 189 193 210 219 224 232 242 243 249 258 260 268 274 280 289 284 271 266 256 243 239 237 230 219 215 214 215 219 217 211 209 204 206 215 211 204 205 210 222 233 226 241 232 210 202 191 188 203 215 208 210 225 241 229 213 220 219 213 220 235 239 235 233 236 237 230 231 244 235 223 220 216 209 194 205 219 212 216 215 176 168 177
331 312 290 297 337 176 181 221 234 229 232 238 247 252 252 256 260 263 266 271 277 274 270 270 262 253 248 242 237 233 226 219 219 222 219 215 213 206 205 209 212 207 202 203 214 226 224 233 241 215 194 191 194 202 211 212 203 210 228 231 221 217 219 223 224 225 229 234 235 235 238 234 222 234 241 237 219 201 207 219 212 210 218 230 233 186 170 175
315 296 280 281 324 183 237 250 241 233 246 247 248 258 260 263 268 263 263 265 265 263 264 269 270 265 261 253 241 236 237 231 224 222 218 217 220 217 207 206 211 210 202 202 208 216 221 222 231 229 204 198 205 203 207 216 213 204 213 225 226 218 212 220 225 223 223 228 236 240 243 239 226 227 237 243 233 185 189 226 230 207 213 224 231 211 181 173
299 274 273 282 318 316 275 258 252 245 247 250 254 260 261 264 267 266 267 267 265 264 262 262 265 265 264 260 251 243 244 243 233 228 222 216 219 220 209 205 209 211 209 206 203 206 218 224 222 230 230 217 209 203 205 214 219 218 214 217 226 225 215 214 216 218 223 223 223 234 245 240 231 235 233 235 237 203 195 213 222 215 215 213 221 222 190 174
294 287 283 276 283 291 276 256 258 254 252 260 262 264 265 266 265 265 266 263 262 264 261 256 256 257 259 260 259 256 255 251 242 237 232 223 220 217 216 218 216 212 210 208 203 200 208 225 221 222 238 240 224 209 204 209 215 222 221 214 219 225 224 225 224 215 223 229 222 222 236 237 230 234 233 234 251 238 214 204 209 227 216 199 213 228 194 176
298 294 288 280 274 270 264 256 258 255 256 260 258 259 261 261 261 263 262 258 257 258 259 259 254 252 253 256 260 264 263 258 250 244 242 241 226 208 211 221 220 214 208 203 198 191 196 218 219 211 220 232 229 215 203 204 210 217 226 221 218 222 227 233 238 228 225 234 232 229 229 224 223 230 230 229 246 252 236 211 207 224 212 192 201 204 179 172
299 290 284 287 276 253 246 250 259 263 262 266 271 276 277 272 275 284 283 271 263 258 257 260 258 256 255 252 251 256 259 259 259 255 253 260 248 212 211 217 212 209 214 211 203 197 195 207 211 211 212 209 217 219 198 197 210 213 221 226 222 220 222 227 235 236 228 222 225 235 244 223 207 210 213 218 233 249 240 217 206 205 201 181 161 156 159 162
297 294 290 296 285 262 253 251 256 270 291 301 306 305 304 298 298 308 311 301 288 279 272 268 263 259 255 253 251 250 253 254 258 263 260 262 261 230 221 221 210 197 183 29 235 212 207 207 209 218 227 218 217 227 208 196 210 216 214 221 225 223 221 221 226 233 234 223 218 230 249 254 225 215 214 209 217 241 246 234 227 209 193 159 131 138 156 160
281 283 289 305 305 295 285 266 260 282 326 318 323 311 302 300 303 309 310 314 319 314 306 304 293 270 252 257 260 252 250 249 247 255 260 263 270 252 232 230 222 183 132 52 288 229 218 216 210 212 226 233 229 230 223 209 211 220 217 216 223 228 227 224 224 228 230 233 233 221 222 246 250 236 230 215 201 207 222 253 264 260 229 196 152 145 156 161
273 278 288 302 300 286 293 290 290 299 297 290 292 294 293 292 293 299 304 311 319 326 330 324 326 323 307 305 306 291 280 263 247 250 255 254 264 263 242 233 225 174 152 218 237 229 230 226 216 210 216 227 232 233 233 225 217 222 225 221 219 222 229 230 228 227 226 232 241 224 204 224 244 243 241 238 213 202 196 211 238 253 242 219 190 162 163 168
276 281 288 297 296 282 282 286 289 290 284 280 273 261 272 281 281 282 295 307 306 320 334 316 320 336 339 338 334 335 353 337 291 285 290 281 272 266 250 235 226 196 189 219 225 226 245 236 225 222 216 219 225 232 239 241 232 225 228 228 221 217 224 232 234 231 227 231 244 244 225 216 227 238 240 239 229 221 215 205 218 246 253 224 193 183 193 196
273 285 297 306 306 295 284 279 281 282 280 279 272 257 256 265 273 275 282 294 293 303 322 315 315 324 331 333 324 327 356 350 322 314 319 323 315 292 272 251 239 218 210 221 224 217 226 229 224 228 230 221 218 222 231 240 243 237 232 232 231 225 221 224 233 236 232 230 236 243 245 228 217 231 246 248 235 222 227 219 211 227 244 240 219 209 221 225
272 282 293 300 299 292 285 281 280 279 279 277 275 275 269 264 266 269 270 274 282 289 300 312 318 319 317 320 321 327 338 332 319 316 315 313 305 293 291 284 266 241 215 217 225 214 213 227 225 223 234 233 222 219 222 228 240 245 238 231 230 231 230 225 222 225 232 237 234 236 243 240 222 225 238 245 235 218 226 251 246 232 229 235 234 227 241 251
280 282 283 285 284 285 285 284 280 276 277 279 277 279 280 278 275 273 272 270 273 280 291 308 318 315 307 311 319 326 327 320 314 312 308 300 292 286 285 285 285 278 239 219 220 217 214 222 227 223 227 231 230 229 222 220 231 238 237 236 232 230 238 239 225 214 219 232 242 246 248 246 234 231 233 234 230 221 212 221 239 247 238 233 231 221 233 248